Home   Weather   Palm Springs   Past weeks

Flag for USA Past Weather in Palm Springs, California, USA — Yesterday and Last 2 Weeks

79 °F

Partly sunny.

Feels Like: 79 °F
Forecast: 71 / 87 °F
Wind: No wind

Location: Palm Springs Regional Airport

Current Time: Oct 24, 2016 at 11:37:34 AM

Latest Report: Oct 24, 2016 at 10:53 AM

Visibility: 10 mi

Pressure: 30.03 "Hg

Humidity: 39%

Dew Point: 52 °F

Location of Palm SpringsLocation

Past Weather in Palm Springs — Graph


Palm Springs Temperature Yesterday

Maximum temperature yesterday: 86 °F (at 4:53 PM)
Minimum temperature yesterday: 67 °F (at 5:53 AM)
Average temperature yesterday: 77 °F

High & Low Weather Summary for the Past Weeks

High96 °F (Oct 9, 1:53 PM)70% (Oct 18, 4:53 AM)30.06 "Hg (Oct 18, 4:53 AM)
Low61 °F (Oct 13, 6:53 AM)5% (Oct 20, 2:53 PM)29.75 "Hg (Oct 17, 5:53 PM)
Average79 °F29%29.89 "Hg
* Reported Oct 9 9:53 AM — Oct 24 9:53 AM, Palm Springs, Weather by CustomWeather, © 2016

Note: Actual official high and low records may vary slightly from our data, if they occured in-between our weather recording intervals... More about our weather records


Palm Springs Weather History for the Previous 24 Hours

Scroll right to see more
Time TempWeatherWind HumidityBarometerVisibility
9:53 AM
Mon, Oct 24
78 °FMostly cloudy.5 mph36%30.03 "Hg10 mi
8:53 AM75 °FSunny.5 mph48%30.03 "Hg10 mi
7:53 AM73 °FMostly cloudy.7 mph55%30.00 "Hg10 mi
6:53 AM73 °FPassing clouds.No wind57%29.97 "Hg10 mi
5:53 AM75 °FLight rain. Partly cloudy.6 mph55%29.96 "Hg10 mi
4:53 AM76 °FPassing clouds.6 mph42%29.95 "Hg10 mi
3:53 AM76 °FPassing clouds.3 mph42%29.94 "Hg10 mi
2:53 AM74 °FPassing clouds.No wind45%29.95 "Hg10 mi
1:53 AM75 °FPassing clouds.6 mph48%29.96 "Hg10 mi
12:53 AM77 °FClear.7 mph45%29.96 "Hg10 mi
11:53 PM
Sun, Oct 23
75 °FClear.No wind43%29.96 "Hg10 mi
10:53 PM77 °FClear.3 mph45%29.96 "Hg10 mi
9:53 PM78 °FClear.3 mph42%29.96 "Hg10 mi
8:53 PM79 °FClear.3 mph38%29.96 "Hg10 mi
7:53 PM80 °FClear.10 mph41%29.95 "Hg10 mi
6:53 PM79 °FClear.No wind29%29.94 "Hg10 mi
5:53 PM82 °FBroken clouds.3 mph24%29.93 "Hg10 mi
4:53 PM86 °FPartly sunny.No wind16%29.93 "Hg10 mi
3:53 PM85 °FSunny.No wind17%29.93 "Hg10 mi
2:53 PM84 °FBroken clouds.7 mph19%29.94 "Hg10 mi
1:53 PM82 °FBroken clouds.No wind22%29.96 "Hg10 mi
12:53 PM82 °FPassing clouds.6 mph22%29.98 "Hg10 mi
11:53 AM83 °FPartly sunny.7 mph19%29.99 "Hg10 mi
Weather by CustomWeather, © 2016

See weather overviewHow to use our weather pages